OpenBCM V1.07b12 (Linux)

Packet Radio Mailbox

DB0FHN

[JN59NK Nuernberg]

 Login: GUEST





  
LU4FI  > KEPS     14.04.03 09:23l 154 Lines 7384 Bytes #999 (0) @ AMSAT
BID : 20834_LU4FI
Read: DB0FHN GUEST
Subj: 2 Line Orbital Elements 03100.AMSAT
Path: DB0FHN<DB0RGB<DB0MRW<DB0PV<OE2XOM<OE5XBL<OE3XSR<OK0PCC<OK0NAG<OK0PPL<
      RZ6HXA<WA7V<W7NTF<RA9XF<LU2HJA<LU4FI
Sent: 030411/1529Z @:LU4FI.2134.SF.ARG.SA #:20834 [Roldan,FF97NC] FBB7.00i
From: LU4FI@LU4FI.2134.SF.ARG.SA
To  : KEPS@AMSAT

AO-07
1 07530U 74089B   03099.65058936 -.00000029  00000-0  10000-3 0 01859
2 07530 101.7491 146.9463 0012045 342.0311 018.0331 12.53565126299461
AO-10
1 14129U 83058B   03091.17918933 -.00000024  00000-0  10000-3 0 09244
2 14129 026.0433 157.4551 6010823 340.2144 004.1663 02.05867447148896
UO-11
1 14781U 84021B   03099.97745991  .00002042  00000-0  28904-3 0 01208
2 14781 098.1245 074.3202 0010680 052.0426 308.1736 14.78161773023686
RS-10/11
1 18129U 87054A   03099.87768720  .00000080  00000-0  70586-4 0 02408
2 18129 082.9203 109.3489 0013452 085.1272 275.1417 13.72706570791418
FO-20
1 20480U 90013C   03100.29667424  .00000020  00000-0  12416-3 0  4759
2 20480  99.0552  53.5272 0539450 248.9659 105.2961 12.83331648617028
RS-12/13
1 21089U 91007A   03099.62692099  .00000084  00000-0  71995-4 0 05129
2 21089 082.9218 144.2487 0029772 143.8728 216.4447 13.74409828610665
RS-15
1 23439U 94085A   03099.93676096 -.00000013  00000-0  82339-3 0 07119
2 23439 064.8174 320.0379 0146494 105.3100 256.4068 11.27548695341271
FO-29
1 24278U 96046B   03100.86831968  .00000062  00000-0  95717-4 0  5730
2 24278  98.5441 245.1392 0351504  83.5168 280.5859 13.52878677328241
SO-33
1 25509U 98061B   03100.35535007  .00000442  00000-0  78471-4 0  8201
2 25509  31.4301 226.3477 0357273  26.3231 335.5085 14.27480293232578
AO-40
1 26609U 00072B   03093.12981620 -.00000366  00000-0  10000-3 0  3237
2 26609   8.4077  56.1468 7953400 160.1620 273.2516  1.25596418 11138
UO-14
1 20437U 90005B   03100.18311667  .00000193  00000-0  88254-4 0  2051
2 20437  98.2659 141.3590 0011829  52.8660 307.3599 14.31256632689730
AO-16
1 20439U 90005D   03100.18966093  .00000248  00000-0  10881-3 0  8767
2 20439  98.3064 153.3374 0011939  59.1714 301.0632 14.31494544689777
WO-18
1 20441U 90005F   03100.23746294  .00000246  00000-0  10781-3 0   540
2 20441  98.3261 156.5758 0012689  60.0718 300.1720 14.31575579689831
LO-19
1 20442U 90005G   03100.14020736  .00000260  00000-0  11287-3 0  9937
2 20442  98.3386 159.5962 0013018  57.9679 302.2765 14.31739526689878
UO-22
1 21575U 91050B   03100.81710272  .00000431  00000-0  15241-3 0  7708
2 21575  98.1463  90.3805 0007389 347.3788  12.7215 14.39195405615657
KO-23
1 22077U 92052B   03099.94546127 -.00000037  00000-0  10000-3 0 02072
2 22077 066.0854 020.2298 0015672 263.4695 096.4539 12.86410386500783
AO-27
1 22825U 93061C   03100.23815599  .00000222  00000-0  10403-3 0  5289
2 22825  98.2707 127.3432 0009354 105.8646 254.3569 14.28962871497111
IO-26
1 22826U 93061D   03100.12048358  .00000210  00000-0  98620-4 0  3316
2 22826  98.2703 128.3681 0009814 105.3627 254.8638 14.29187358497145
KO-25
1 22828U 93061F   03099.59882406  .00000191  00000-0  90523-4 0  4689
2 22828  98.2651 128.1369 0011053  88.8762 271.3687 14.29526337465274
TO-31
1 25396U 98043C   03099.93243589 -.00000043  00000-0  00000-0 0 08574
2 25396 098.6167 176.0251 0002503 009.6193 350.5035 14.23527550246696
GO-32
1 25397U 98043D   03099.90358545  .00000116  00000-0  70547-4 0 01694
2 25397 098.6139 174.8155 0001732 034.2949 325.8337 14.22972411246656
UO-36
1 25693U 99021A   03100.75784747  .00000407  00000-0  77958-4 0  8641
2 25693  64.5595 214.1005 0025099 313.6132  46.2904 14.76448086213816
AO-37
1 26065U 00004E   03100.39255225  .00000281  00000-0  11695-3 0  7769
2 26065 100.1988 164.3277 0037895 144.4970 215.8742 14.35535615167673
SO-41
1 26545U 00057A   03100.79768571  .00001231  00000-0  18190-3 0  4363
2 26545  64.5582 234.4543 0048258 230.5147 129.1694 14.79121806136795
MO-46
1 26548U 00057D   03100.47033354  .00001595  00000-0  21869-3 0  4398
2 26548  64.5570 227.7778 0041482 230.7376 129.0014 14.81451933136906
SO-42
1 26549U 00057E   03099.85578435  .00001717  00000-0  25118-3 0 07358
2 26549 064.5523 241.7214 0052845 230.1741 129.4700 14.78051865136576
NO-44
1 26931U 01043C   03100.82307789  .00000240  00000-0  12717-3 0  4461
2 26931  67.0468 123.6627 0005765 273.3410  86.7032 14.29146073 79676
AO-49
1 27605U 02058A   03100.89398582  .00000915  00000-0  16736-3 0  1040
2 27605  64.5500  41.3740 0034849  90.3099 270.1990 14.71457656 16369
SO-50
1 27607U 02058C   03100.87107481  .00001411  00000-0  25413-3 0   971
2 27607  64.5497  42.2444 0036194  86.2624 274.2574 14.70027813 16348
NOAA-10
1 16969U 86073A   03100.45044332  .00000252  00000-0  12176-3 0  7294
2 16969  98.7357  94.4791 0011859 302.6926  57.3115 14.27087181861161
NOAA-11
1 19531U 88089A   03100.79339190  .00000283  00000-0  14725-3 0  5673
2 19531  98.8923 181.9873 0012373  59.8044 300.4827 14.14563987750041
NOAA-12
1 21263U 91032A   03100.80740078  .00000425  00000-0  18114-3 0   379
2 21263  98.6336  89.6001 0011975 230.3483 129.7130 14.25120479618554
MET-3/5
1 21655U 91056A   03099.89125671  .00000051  00000-0  10000-3 0 05277
2 21655 082.5602 003.3185 0014653 072.7949 287.4772 13.16982809560107
MET-2/21
1 22782U 93055A   03100.66441645  .00000151  00000-0  12358-3 0  5651
2 22782  82.5515 174.3845 0022257 198.5129 161.5234 13.83535422485155
OKEAN-4
1 23317U 94066A   03100.79508491  .00001470  00000-0  18602-3 0  1992
2 23317  82.5373 281.2423 0021426 242.8149 117.0889 14.81056742457685
NOAA-14
1 23455U 94089A   03100.44665911  .00000245  00000-0  15560-3 0  5884
2 23455  99.1855 120.3521 0010228  86.3070 273.9272 14.13318519426661
SICH-1
1 23657U 95046A   03100.83218664  .00001687  00000-0  21857-3 0    22
2 23657  82.5284  61.9804 0023023 222.5186 137.4245 14.80109278409816
NOAA-15
1 25338U 98030A   03100.46070820  .00000278  00000-0  13897-3 0   722
2 25338  98.5475 121.2287 0010515 163.9604 196.1912 14.24270361255040
RESURS
1 25394U 98043A   03100.23038033  .00000217  00000-0  11358-3 0  4900
2 25394  98.6217 177.2011 0001029   4.4916 355.6271 14.23898466246746
FENGYUN1
1 25730U 99025A   03100.18655930  .00000002  00000-0  24081-4 0  8083
2 25730  98.6318 122.6805 0013848 216.0493 143.9746 14.11739450201773
OKEAN-0
1 25860U 99039A   03099.98351681  .00000973  00000-0  16012-3 0 00570
2 25860 097.8562 145.8713 0000460 076.3387 283.7871 14.72687076200357
NOAA-16
1 26536U 00055A   03100.39206787  .00000418  00000-0  25294-3 0  2843
2 26536  98.9090  48.3227 0010713 157.7915 202.3722 14.11936961131321
NOAA-17
1 27453U 02032A   03100.46169214  .00000370  00000-0  18288-3 0  3685
2 27453  98.7473 171.3807 0011368 206.1588 153.9017 14.23327386 41209
HUBBLE
1 20580U 90037B   03100.20060259  .00001707  00000-0  12764-3 0  3905
2 20580  28.4666  69.0952 0003917  93.8614  30.8673 14.98046015510237
UARS
1 21701U 91063B   03100.71305845  .00001015  00000-0  93732-4 0  8676
2 21701  56.9813 185.0258 0004490  89.0348 271.1181 15.02979464633407
PO-34
1 25520U 98064B   03100.71179502  .00003142  00000-0  15756-3 0  6586
2 25520  28.4598 243.1330 0006280 190.0194 170.0289 15.14165473245340
ISS
1 25544U 98067A   03100.80462084  .00021077  00000-0  28168-3 0  8787
2 25544  51.6339 358.6614 0006690   4.5589 106.2561 15.57982134250490
WO-39
1 26061U 00004A   03099.88984177  .00000799  00000-0  28230-3 0  8084
2 26061 100.1960 166.2738 0035675 136.9342 223.4636 14.37892316167768
OO-38
1 26063U 00004C   03099.73969748  .00000279  00000-0  11661-3 0  7595
2 26063 100.2029 163.3960 0037023 144.9033 215.4598 14.35505390167586
NO-45
1 26932U 01043D   03099.95518611  .00000141  00000-0  87711-4 0 04413
2 26932 067.0538 125.5900 0004041 260.0138 100.0507 14.29315863079577


Read previous mail | Read next mail


 16.09.2025 23:19:42lGo back Go up